SCP
0 0 0 0 0 0 0 0 0 0 1 1 1 1 1 1 1 1 1 1 1 2 2 2 3 3 3 4 4 4 3 3 3 3 2 2 1 1 1 1 1 1 1 1 1 1 1 1 1
0 0 0 0 0 0 0 0 0 1 1 2 2 2 2 1 1 1 1 1 1 2 2 2 3 3 4 4 4 4 3 3 3 2 2 2 2 1 1 1 1 1 1 1 1 1 1 1 1
0 0 0 0 0 0 0 0 1 1 2 3 3 2 2 2 2 2 2 2 2 2 2 3 4 4 4 4 4 4 3 3 3 2 2 2 2 2 1 1 1 1 1 1 1 1 1 1 1
0 0 0 0 0 0 0 1 1 2 3 3 3 3 2 2 2 3 3 3 3 3 3 4 4 5 4 4 4 4 4 3 3 2 2 2 2 2 1 1 1 1 1 1 1 1 1 1 1
0 0 0 0 0 1 1 1 2 2 3 3 3 3 3 2 3 3 4 4 4 5 5 4 5 5 5 5 4 4 4 3 3 2 2 2 2 2 2 1 1 1 1 2 2 2 1 1 1
0 0 0 0 1 2 2 2 3 3 4 3 3 3 3 3 4 4 4 5 5 6 5 4 4 4 5 5 5 4 4 3 3 3 3 3 3 2 2 2 1 1 2 2 2 2 2 2 1
0 0 0 0 1 2 2 3 4 4 4 4 3 3 3 4 4 4 4 5 5 5 5 4 4 4 4 5 5 5 4 3 4 4 4 3 3 2 2 2 2 2 2 2 2 2 2 2 2
0 0 0 0 1 1 2 3 4 4 4 4 3 3 3 4 4 4 5 5 5 5 5 4 3 3 4 5 5 4 3 3 4 4 4 3 2 2 2 2 2 2 2 2 2 2 2 2 2
0 0 0 1 1 1 2 3 3 3 4 4 3 3 4 5 5 5 5 6 6 6 5 4 3 3 4 4 4 3 2 2 3 3 3 3 2 2 2 2 2 2 2 2 1 2 2 1 1
0 0 1 1 1 1 2 2 2 3 4 5 4 4 5 6 6 7 7 7 8 7 6 5 3 3 3 3 3 2 2 2 2 2 2 2 3 2 2 2 2 2 2 2 2 2 2 1 1
0 1 1 1 1 1 1 2 2 3 4 5 6 6 6 7 7 7 8 8 8 8 6 5 4 3 3 3 2 2 2 2 2 2 2 2 2 2 2 2 1 2 2 2 2 2 2 2 1
1 1 1 1 1 1 1 2 2 3 4 6 7 7 6 6 7 7 7 7 7 6 5 4 4 3 3 3 3 2 2 2 2 2 2 2 2 2 2 2 1 1 2 3 2 2 2 2 2
1 1 1 1 1 2 2 2 3 5 6 7 7 6 6 6 6 7 7 7 7 6 5 4 4 3 3 3 3 3 3 3 3 3 3 3 3 3 2 2 1 1 2 2 2 2 2 2 2
1 1 1 1 1 2 2 3 4 6 7 7 6 5 5 5 6 6 8 9 9 7 6 5 4 4 4 4 4 4 4 4 4 4 4 4 4 3 2 2 1 1 1 1 1 2 2 2 2
1 1 0 1 1 1 2 3 5 7 7 6 5 5 6 6 6 7 9 11 10 8 7 6 6 5 5 5 5 5 5 4 4 4 4 4 3 3 2 2 1 1 1 1 1 1 2 2 1
1 0 0 0 1 1 1 2 3 5 6 6 6 6 7 8 8 8 9 10 10 9 8 7 7 6 6 6 6 6 5 5 4 4 4 3 3 2 2 2 2 1 1 1 1 1 1 1 1
0 0 0 0 1 1 1 2 2 3 5 6 6 7 8 9 9 9 8 9 9 9 9 8 7 7 6 6 6 6 6 5 4 4 4 3 3 2 2 2 2 2 1 1 1 1 1 1 1
0 0 0 0 1 1 1 1 2 3 4 5 6 6 7 8 8 8 9 10 11 10 10 10 9 8 8 7 7 7 6 5 4 4 3 3 3 3 2 2 2 1 1 1 2 1 1 1 1
0 0 0 0 1 1 1 1 2 3 4 5 5 6 6 6 6 8 11 12 12 10 10 11 11 10 10 10 9 8 7 5 4 4 3 4 4 4 4 3 2 2 1 1 1 1 1 1 1
0 0 0 0 0 1 1 1 2 3 4 4 5 5 5 4 4 7 11 11 10 9 9 9 9 10 12 13 12 10 7 6 4 4 4 4 5 6 5 4 3 2 1 1 1 1 1 1 1
0 0 0 0 0 0 1 1 2 3 4 4 4 4 4 4 4 6 9 10 8 7 8 8 8 9 12 14 13 11 8 6 5 4 4 5 6 7 7 6 4 3 2 1 1 0 0 0 0
0 0 0 0 0 0 0 1 2 2 3 3 3 3 3 3 3 5 8 10 9 8 7 7 7 7 10 12 12 10 8 6 5 4 4 4 6 7 7 6 4 2 1 1 1 0 0 0 0
0 0 0 0 0 0 0 1 1 2 2 2 2 2 2 2 3 3 5 8 9 9 7 6 6 6 7 9 9 8 7 6 5 4 3 4 5 6 6 4 2 1 1 1 0 0 0 0 0
0 0 0 0 0 0 0 0 1 1 1 1 1 1 1 2 2 2 2 4 8 10 9 7 7 6 6 6 6 6 5 5 5 4 4 4 5 5 4 2 1 1 1 0 0 0 0 0 0
0 0 0 0 0 0 0 0 1 1 1 1 1 1 1 1 2 1 2 3 5 9 10 10 9 7 6 5 5 5 4 5 4 4 4 5 5 4 3 2 1 1 0 0 0 0 0 0 0
0 0 0 0 0 0 0 0 0 0 1 1 1 1 1 1 1 1 1 2 3 6 10 12 12 10 7 5 4 4 4 4 4 3 4 4 4 4 3 2 1 1 0 0 0 0 0 0 0
0 0 0 0 0 0 0 0 0 0 1 1 1 1 1 1 1 1 1 2 2 4 8 12 14 13 9 6 4 4 4 4 4 3 3 4 3 3 3 2 2 1 0 0 0 0 0 0 0
0 0 0 0 0 0 0 0 0 0 0 1 1 1 1 1 1 1 1 1 2 3 7 11 14 13 10 6 4 4 4 4 3 3 4 4 4 3 2 2 1 1 0 0 0 0 0 0 0
0 0 0 0 0 0 0 0 0 0 0 0 0 1 1 1 1 1 1 1 1 3 5 8 10 10 7 5 4 3 3 3 3 3 4 4 4 3 1 1 1 0 0 0 0 0 0 0 0
0 0 0 0 0 0 0 0 0 0 0 0 0 1 1 1 1 1 1 1 1 2 3 5 6 5 4 3 3 3 3 3 3 3 4 5 4 2 1 0 0 0 0 0 0 0 0 0 0
Wind_Speed
3 2 2 3 5 4 3 6 2 1 2 3 6 9 7 5 4 4 4 13 15 14 11 14 16 15 15 14 13 12 12 12 11 11 11 10 10 10 10 9 9 8 8 7 7 6 5 5 4
2 2 3 4 4 1 5 5 1 1 4 6 7 8 7 7 6 8 7 12 16 14 10 12 16 15 15 14 13 12 12 12 11 10 10 10 9 9 8 8 7 7 6 6 5 5 4 3 3
1 1 3 4 2 4 5 3 1 1 2 4 5 5 5 5 7 6 9 16 14 11 9 12 17 15 15 14 13 12 12 12 11 10 10 9 9 8 8 7 7 6 6 5 5 5 4 3 3
2 3 3 3 4 7 5 5 2 1 3 4 7 6 4 3 5 8 16 16 14 11 9 12 17 15 14 14 13 12 12 11 11 10 9 9 8 8 8 7 7 6 6 6 5 5 5 4 4
3 4 3 2 5 5 4 4 1 3 2 5 8 6 3 4 11 15 16 16 14 10 8 10 15 15 14 14 13 12 12 11 10 10 9 8 8 8 7 7 7 7 6 6 6 6 6 6 6
4 4 3 3 5 5 4 2 2 3 4 5 8 6 2 4 12 14 14 12 13 12 9 9 15 15 14 14 13 12 11 10 10 9 8 8 8 8 8 8 8 8 7 7 7 7 7 7 7
4 3 2 3 4 4 4 2 1 2 4 4 7 7 3 4 8 11 12 11 11 11 9 7 8 10 13 13 12 11 10 9 9 8 8 8 8 8 8 8 8 8 8 8 8 8 8 8 8
5 3 1 2 2 5 4 2 0 2 2 4 5 8 6 7 9 11 10 10 10 9 8 7 6 6 6 8 11 11 10 9 8 8 8 8 8 8 8 7 8 9 9 9 9 9 9 8 9
3 3 2 4 3 4 3 0 3 1 5 4 3 5 8 12 13 12 10 8 8 8 6 6 6 5 5 5 8 9 8 8 7 6 8 7 3 4 5 7 9 10 10 10 10 10 9 9 9
4 3 7 6 5 3 2 1 1 2 5 5 5 6 10 12 12 12 12 10 9 9 7 6 6 6 5 5 4 3 4 3 3 2 3 2 2 2 4 6 9 10 10 10 10 10 9 8 4
5 7 6 6 6 3 1 0 1 5 2 6 10 12 11 10 10 10 10 10 9 9 8 7 7 6 6 4 4 3 2 2 3 3 3 2 2 2 2 2 3 4 6 4 5 5 3 3 3
3 6 6 5 4 1 2 2 1 2 4 8 12 13 12 10 9 9 9 9 8 8 7 7 7 6 6 4 4 4 3 3 3 3 4 2 2 2 2 2 2 2 2 2 2 2 3 3 4
3 5 5 4 3 2 2 2 2 1 3 7 9 11 11 10 8 6 6 7 8 8 7 7 7 6 6 5 4 4 4 4 3 3 3 3 3 2 2 2 2 2 2 2 2 2 2 3 3
4 3 4 3 2 1 3 0 1 2 4 8 8 8 9 9 8 6 6 6 7 8 7 7 7 6 5 4 4 3 3 3 2 2 3 4 3 2 2 2 2 2 2 2 2 2 2 2 2
0 3 6 4 2 2 4 3 1 4 5 6 7 6 7 7 7 7 7 7 7 7 7 7 7 6 5 4 4 3 3 3 2 2 3 3 2 2 2 1 1 2 2 1 1 2 1 2 2
4 3 3 7 1 2 5 2 4 2 5 5 6 6 6 5 5 5 6 6 6 6 7 7 6 5 4 3 3 2 2 2 2 2 2 2 2 2 1 1 1 2 1 1 1 1 1 2 2
5 2 3 6 3 1 4 4 5 2 6 5 5 6 5 5 4 3 4 5 5 5 5 5 4 4 3 2 1 2 2 2 1 1 1 1 1 1 1 1 1 1 1 1 1 1 1 2 2
4 3 3 4 3 3 3 2 3 3 6 5 4 4 3 4 3 4 4 3 4 4 5 4 4 4 3 2 1 1 1 1 1 1 1 1 1 1 1 1 1 1 0 1 1 1 1 1 2
3 2 4 5 2 2 1 1 2 2 4 4 4 3 3 3 3 3 4 4 5 4 3 4 4 3 3 1 1 1 0 1 0 1 1 1 2 1 1 0 0 0 0 1 1 1 1 1 1
2 2 3 4 4 2 2 2 1 2 4 4 4 3 3 3 3 3 4 4 4 3 3 3 2 2 3 2 2 1 1 1 1 0 0 1 1 1 1 1 0 0 0 1 1 0 0 1 0
3 2 3 3 4 4 4 4 4 4 6 7 5 4 4 5 3 2 3 3 3 2 2 1 1 1 2 2 2 2 2 1 1 1 1 1 1 1 1 1 1 0 0 1 2 1 1 1 1
3 3 2 3 4 3 1 1 3 2 5 5 4 4 4 4 4 3 2 3 3 2 2 1 2 1 1 2 2 3 2 1 2 2 1 1 1 1 1 1 1 1 1 1 2 1 1 1 1
2 3 3 2 2 2 4 2 3 2 2 2 2 2 2 2 3 3 2 3 3 2 2 1 2 1 0 1 2 2 1 1 1 1 1 1 1 1 1 1 1 1 1 1 2 1 1 1 2
3 6 6 6 5 3 3 1 2 2 2 1 1 1 1 2 2 2 2 2 2 2 2 2 1 0 0 0 1 2 2 1 1 1 1 1 1 1 1 1 1 1 1 2 2 2 2 2 2
7 7 6 7 5 3 3 2 2 2 1 2 2 1 1 1 2 2 1 1 2 2 2 2 2 1 1 0 1 1 2 2 2 2 2 1 1 1 2 1 1 1 2 2 2 2 2 2 2
2 5 4 2 3 4 3 0 3 1 1 2 1 1 1 1 2 2 1 2 3 3 2 2 2 1 1 1 2 2 1 1 2 2 2 2 2 2 2 2 2 2 2 2 2 1 2 2 2
2 2 4 5 0 1 3 2 2 3 4 4 3 3 2 1 1 1 1 1 2 2 2 2 2 1 1 1 1 1 1 1 2 2 2 2 2 1 1 1 1 2 2 2 2 2 3 2 2
3 2 5 4 1 2 4 2 3 5 5 5 4 3 3 2 1 1 0 0 1 2 1 1 1 1 1 1 1 1 2 2 1 1 2 2 2 1 1 1 2 2 2 2 1 2 2 2 3
4 4 3 2 3 3 2 4 2 1 2 2 3 1 1 2 1 1 1 0 0 1 1 1 0 0 1 1 1 1 1 1 1 1 2 2 1 1 1 2 1 2 2 1 1 2 2 2 3
2 1 3 2 2 2 2 5 3 1 2 2 3 2 2 1 1 1 1 2 2 1 0 0 0 0 2 1 1 1 2 1 1 2 2 1 1 2 1 1 1 1 2 2 2 3 3 2 3
Wind_Direction
184 174 121 74 55 45 276 262 250 351 21 68 91 95 93 80 117 145 136 138 137 143 149 149 146 143 141 140 140 139 138 136 135 132 130 129 128 128 129 130 132 134 135 134 132 130 128 125 121
182 167 76 64 83 26 276 262 329 246 144 110 86 92 84 76 90 113 124 141 140 143 147 149 148 144 142 142 143 144 143 143 142 141 140 140 140 142 144 144 145 147 148 149 149 149 149 148 147
222 156 95 82 131 196 247 259 168 321 120 99 78 60 74 105 114 133 145 142 138 141 146 153 150 147 145 144 145 147 148 149 149 149 150 152 153 155 159 161 162 164 167 170 173 174 175 180 190
83 55 53 76 249 236 224 252 244 56 33 72 99 71 54 86 125 133 139 141 138 142 148 154 151 150 148 148 149 150 152 154 156 158 160 161 164 168 171 175 178 181 186 191 194 196 198 206 218
70 79 53 323 270 267 254 246 244 82 76 84 96 95 53 30 111 128 140 141 139 142 148 154 153 153 153 153 153 154 156 159 161 165 167 170 174 179 183 187 191 196 201 205 208 210 211 219 228
59 74 85 274 279 290 303 298 99 94 106 108 100 99 77 117 124 137 140 139 142 146 148 153 158 157 159 159 158 158 160 163 164 168 172 177 183 188 194 199 204 207 210 214 216 217 219 224 232
118 105 191 239 278 305 298 321 75 142 136 134 127 116 132 143 140 140 137 132 134 141 146 153 159 161 164 164 163 163 165 167 171 174 178 186 193 198 204 209 215 219 220 222 225 227 230 232 235
156 108 294 273 260 278 284 323 351 123 125 119 110 134 166 170 136 126 126 125 133 140 148 154 157 156 160 165 168 170 172 174 179 185 188 194 201 207 212 215 223 229 231 232 233 234 238 238 240
127 80 247 232 221 256 259 25 320 15 90 82 87 140 157 142 130 124 125 127 134 141 150 153 155 154 154 166 174 170 175 183 186 193 199 202 210 219 225 228 229 233 238 240 243 243 244 246 248
123 167 233 219 210 211 227 156 205 70 80 83 77 94 127 133 135 138 142 151 155 161 165 161 159 158 158 169 158 160 174 182 187 191 202 204 199 224 234 246 244 243 245 248 251 253 253 252 251
177 206 235 239 229 196 206 208 150 130 120 152 149 147 146 140 140 146 153 157 165 166 165 167 165 162 163 163 155 162 171 182 196 193 198 207 204 228 242 245 259 257 252 252 263 263 255 247 240
220 243 232 239 244 220 203 181 113 128 180 158 152 150 147 146 153 158 157 156 158 157 164 163 163 165 171 164 162 167 176 189 198 203 194 193 200 211 227 232 244 243 242 238 241 242 248 254 253
238 261 263 246 248 216 130 119 134 155 137 130 132 137 146 154 159 156 149 149 148 153 158 160 161 165 168 164 170 170 183 188 196 198 199 192 195 210 216 228 232 237 230 226 233 237 245 254 259
245 263 281 271 265 258 120 336 76 217 131 126 135 149 154 155 155 147 137 146 155 159 162 161 158 163 162 164 171 175 183 183 188 199 201 191 192 199 201 227 237 233 229 229 227 230 236 253 258
305 339 326 299 270 240 97 19 241 208 135 137 147 154 149 150 148 152 163 162 165 165 162 163 164 159 157 161 173 168 173 174 183 198 202 193 192 192 192 209 233 243 242 235 234 252 259 273 274
6 20 321 290 293 263 110 206 254 221 139 148 147 147 148 152 152 150 153 163 162 165 163 166 159 149 149 155 166 160 162 162 176 185 194 192 196 186 185 211 240 247 240 231 237 255 264 275 276
5 347 292 300 309 360 120 186 233 193 136 145 148 153 153 152 149 142 145 157 161 164 154 147 137 137 147 147 169 142 139 152 169 168 182 194 192 183 185 231 251 242 224 233 255 256 228 262 282
273 291 302 294 302 52 91 200 214 170 136 133 138 141 149 151 165 155 144 142 134 133 130 132 118 119 125 136 119 96 101 124 142 176 185 169 185 196 185 216 255 242 213 289 271 256 256 248 268
231 276 293 283 285 60 112 262 251 183 128 126 119 106 120 142 146 135 127 113 99 99 112 120 114 131 136 130 135 138 171 209 205 216 193 184 193 182 159 169 301 10 219 255 257 255 281 276 308
346 338 309 305 331 59 74 16 1 89 117 119 121 121 113 101 80 94 98 97 102 108 118 122 132 139 146 163 169 160 152 227 218 264 311 252 205 176 149 139 155 298 310 308 289 266 275 280 322
357 353 314 297 352 32 65 16 12 36 77 77 77 83 86 97 98 95 89 91 97 107 108 145 153 132 134 132 110 82 66 20 347 316 282 266 228 189 163 161 171 238 221 272 280 255 203 263 277
330 320 339 356 30 327 60 312 329 28 58 53 59 70 90 92 89 79 91 95 102 117 108 100 95 87 107 123 134 140 150 198 241 251 257 285 273 250 208 192 212 239 235 252 265 255 226 200 256
286 331 8 28 65 29 15 88 302 14 39 346 9 74 105 112 110 109 130 153 135 123 117 107 81 80 87 135 144 140 173 231 252 263 262 280 283 284 281 227 225 254 256 261 265 263 246 217 215
19 25 25 34 56 36 325 87 297 300 255 273 310 179 128 105 84 73 76 116 118 123 127 139 141 172 251 157 149 154 186 219 239 265 261 268 286 290 278 249 234 238 245 254 255 252 250 243 237
34 55 26 8 12 280 302 78 250 272 257 187 189 176 159 130 99 75 59 116 131 137 133 143 151 198 280 254 205 204 216 211 211 229 235 245 253 257 256 252 248 243 245 246 248 255 264 256 249
341 105 133 200 245 284 328 202 250 317 28 46 101 149 141 123 123 132 167 157 149 153 154 150 148 165 264 262 248 229 222 215 224 223 222 230 235 235 238 240 246 249 255 259 262 267 269 271 260
26 17 161 140 300 321 297 305 318 13 21 27 32 39 27 53 84 81 116 141 156 159 170 169 162 171 239 255 252 232 235 228 236 238 228 231 244 250 255 256 264 269 264 260 261 266 271 278 275
91 112 65 78 94 303 301 303 293 324 343 355 7 15 3 15 39 63 81 102 195 187 173 122 145 197 259 275 257 236 230 241 249 241 233 231 243 251 260 261 264 275 284 285 278 282 283 284 285
11 24 70 101 159 161 265 280 286 268 316 330 332 357 8 17 22 29 357 291 268 159 132 129 157 65 309 283 255 236 259 266 266 246 233 236 240 248 246 250 265 287 297 300 297 290 291 287 288
74 71 115 118 271 183 192 267 309 7 10 10 357 15 15 6 12 34 48 31 14 16 155 161 276 281 275 270 292 260 265 267 270 269 266 257 259 265 259 261 292 303 310 313 295 283 292 287 288